User: anonymous   Login
Location: Unspecified
(0.0000°N, 0.0000°E)
Time: 19:04:55
(UTC+00:00)
Language:

STARLINK-34378 - Orbit

View from above orbital plane
View from above orbital plane
View from above satellite
View from above satellite

Ground track
Ground track

The orbit is defined by the following mean orbital elements,

1 64299U          26145.56208764 +.00000000 +00000-0 +11538-3 0 00000
2 64299  70.0048   0.6247 0003102 302.0941  57.9917 14.98327143    05
Epoch (UTC): 25 May 2026 13:29:24
Eccentricity: 0.0003102
inclination: 70.0048°
perigee height: 570 km
apogee height: 574 km
right ascension of ascending node: 0.6247°
argument of perigee: 302.0941°
revolutions per day: 14.98327143
mean anomaly at epoch: 57.9917°

The dashed part of the orbit path shows where the satellite is in the earth's shadow,  

DLR